1530489600.72,10243,13.81,73532.3,-4.01,-5.11,-5.11,0,*51
1530489601.99,10244,13.81,73524.3,-4.01,-5.11,-5.11,0,*56
1530489603.24,10245,13.81,73512.8,-4.01,-4.99,-5.11,0,*56
1530489604.49,10246,13.81,73520.8,-4.01,-4.99,-5.19,0,*5D
1530489605.78,10247,13.81,73516.8,-4.01,-5.07,-5.11,0,*52
1530489607.03,10248,13.81,73538.3,-4.01,-4.99,-5.07,0,*5C
1530489608.28,10249,13.81,73538.0,-4.01,-4.99,-4.93,0,*51
1530489609.53,10250,13.75,73526.3,-3.99,-4.89,-4.81,0,*5D
1530489610.78,10251,13.81,73528.3,-3.99,-4.81,-4.81,0,*54
1530489612.03,10252,13.81,73528.5,-3.99,-4.81,-4.77,0,*5E
1530489613.25,10253,13.81,73524.8,-3.99,-4.77,-4.65,0,*55
1530489614.48,10254,13.81,73526.3,-3.99,-4.77,-4.65,0,*52
1530489615.72,10255,13.81,73524.8,-3.99,-4.73,-4.73,0,*50
1530489616.97,10256,13.81,73526.5,-3.99,-4.73,-4.77,0,*57
1530489618.22,10257,13.81,73516.5,-3.99,-4.77,-4.81,0,*5B
1530489619.49,10258,13.81,73546.0,-4.01,-4.93,-5.11,0,*50
1530489620.72,10259,13.81,73550.0,-3.99,-4.89,-5.43,0,*5B
1530489621.97,10260,13.81,73532.3,-3.99,-5.07,-5.69,0,*5E
1530489623.19,10261,13.81,73520.3,-3.99,-5.51,-5.55,0,*53
1530489624.42,10262,13.81,73516.5,-3.97,-5.43,-5.55,0,*5D
1530489625.65,10263,13.81,73514.0,-3.97,-5.43,-5.51,0,*58
1530489626.89,10264,13.81,73492.8,-3.97,-5.51,-5.55,0,*58
1530489628.13,10265,13.75,73492.0,-3.97,-5.51,-5.55,0,*59
1530489629.37,10266,13.81,73494.8,-3.97,-5.39,-5.55,0,*54
1530489630.6,10267,13.81,73518.3,-3.97,-5.39,-5.43,0,*52
1530489631.83,10268,13.81,73530.8,-3.97,-5.39,-5.55,0,*5A
1530489633.06,10269,13.81,73532.3,-3.95,-5.35,-5.69,0,*5A
1530489634.31,10270,13.81,73534.3,-3.97,-5.73,-6.31,0,*5C
1530489635.56,10271,13.81,73522.0,-3.95,-6.19,-5.69,0,*5E
1530489636.82,10272,13.81,73526.5,-3.95,-5.65,-5.27,0,*5F
1530489638.11,10273,13.81,73516.3,-3.97,-5.31,-5.15,0,*5C
1530489639.4,10274,13.81,73516.8,-3.97,-5.07,-5.27,0,*5F
1530489640.69,10275,13.81,73520.5,-3.97,-5.07,-5.19,0,*53
1530489641.98,10276,13.81,73530.8,-3.97,-5.07,-5.03,0,*5B
1530489643.22,10277,13.81,73536.8,-3.95,-4.89,-4.77,0,*5D
1530489644.46,10278,13.81,73530.3,-3.95,-4.77,-4.73,0,*57
1530489645.71,10279,13.81,73530.5,-3.95,-4.73,-4.73,0,*52
1530489646.93,10280,13.81,73536.8,-3.95,-4.69,-4.61,0,*5C
1530489648.18,10281,13.81,73538.0,-3.97,-4.65,-4.73,0,*50
1530489649.38,10282,13.75,73534.0,-3.95,-4.61,-4.61,0,*56
1530489650.59,10283,13.75,73534.5,-3.95,-4.57,-4.61,0,*52
1530489651.79,10284,13.81,73540.5,-3.95,-4.57,-4.61,0,*55
1530489653.0,10285,13.81,73540.8,-3.95,-4.57,-4.61,0,*54
1530489654.22,10286,13.81,73540.0,-3.95,-4.61,-4.73,0,*51
1530489655.49,10287,13.81,73544.3,-3.93,-4.73,-4.89,0,*50
1530489656.74,10288,13.81,73534.8,-3.95,-4.73,-5.03,0,*5A
1530489657.99,10289,13.81,73530.5,-3.95,-4.77,-5.27,0,*59
1530489659.21,10290,13.81,73528.3,-3.95,-4.99,-5.61,0,*53
1530489660.46,10291,13.81,73538.5,-3.93,-5.23,-6.13,0,*52
1530489661.72,10292,13.81,73532.8,-3.93,-5.61,-6.31,0,*57
1530489662.99,10293,13.81,73536.0,-3.93,-5.77,-6.27,0,*56
1530489664.24,10294,13.75,73526.0,-3.93,-5.69,-6.05,0,*5E
1530489665.51,10295,13.81,73540.0,-3.93,-5.69,-5.93,0,*53
1530489666.76,10296,13.75,73560.0,-3.93,-5.51,-5.65,0,*52
1530489667.99,10297,13.75,73550.0,-3.93,-5.51,-5.51,0,*54
1530489669.22,10298,13.81,73538.8,-3.93,-5.47,-5.39,0,*52
1530489670.5,10299,13.81,73534.8,-3.93,-5.23,-5.03,0,*58
1530489671.75,10300,13.81,73536.3,-3.93,-5.03,-4.99,0,*59
1530489673.02,10301,13.81,73544.3,-3.93,-4.89,-4.77,0,*5B
1530489674.29,10302,13.81,73538.3,-3.93,-4.85,-4.85,0,*59
1530489675.56,10303,13.75,73536.3,-3.93,-4.85,-4.85,0,*58
1530489676.83,10304,13.81,73542.8,-3.93,-4.77,-4.85,0,*52
1530489678.1,10305,13.81,73540.8,-3.93,-4.77,-4.89,0,*5F
1530489679.37,10306,13.81,73540.5,-3.93,-4.85,-4.89,0,*51
1530489680.58,10307,13.81,73544.0,-3.93,-4.99,-4.99,0,*5C
1530489681.86,10308,13.81,73548.8,-3.93,-5.15,-4.89,0,*57
1530489683.14,10309,13.81,73544.3,-3.93,-5.11,-4.89,0,*52
1530489684.41,10310,13.81,73538.8,-3.93,-5.03,-4.77,0,*58
1530489685.66,10311,13.81,73538.0,-3.91,-4.85,-4.85,0,*59
1530489686.9,10312,13.75,73530.5,-3.91,-4.93,-4.85,0,*5D
1530489688.17,10313,13.81,73530.8,-3.93,-4.89,-4.77,0,*58
1530489689.43,10314,13.81,73538.0,-3.93,-4.77,-4.77,0,*5E
1530489690.67,10315,13.81,73534.0,-3.91,-4.73,-4.93,0,*53
1530489691.94,10316,13.81,73540.8,-3.93,-4.85,-4.85,0,*5C
1530489693.19,10317,13.81,73554.3,-3.91,-4.73,-4.73,0,*5F
1530489694.43,10318,13.81,73546.8,-3.93,-4.61,-4.73,0,*51
1530489695.7,10319,13.81,73534.3,-3.93,-4.69,-4.73,0,*58
1530489696.92,10320,13.81,73538.0,-3.91,-4.65,-4.69,0,*57
1530489698.16,10321,13.75,73522.3,-3.91,-4.69,-4.81,0,*5C
1530489699.44,10322,13.75,73514.0,-3.93,-4.77,-5.07,0,*5D
1530489700.68,10323,13.81,73518.0,-3.91,-4.93,-5.19,0,*5B
1530489701.9,10324,13.81,73526.5,-3.91,-4.99,-5.07,0,*59
1530489703.19,10325,13.75,73528.3,-3.89,-5.07,-5.11,0,*50
1530489704.45,10326,13.81,73538.3,-3.89,-4.93,-4.93,0,*54
1530489705.72,10327,13.81,73542.5,-3.89,-4.85,-4.73,0,*5C
1530489707.0,10328,13.81,73550.5,-3.89,-4.81,-4.81,0,*5A
1530489708.27,10329,13.81,73546.8,-3.89,-4.81,-4.73,0,*56
1530489709.54,10330,13.75,73544.5,-3.93,-4.77,-4.81,0,*51
1530489710.78,10331,13.81,73538.0,-3.91,-4.85,-4.93,0,*5C
1530489712.02,10332,13.81,73536.0,-3.89,-4.93,-4.99,0,*5B
1530489713.3,10333,13.75,73532.8,-3.89,-5.07,-5.11,0,*57
1530489714.58,10334,13.81,73546.5,-3.89,-5.07,-5.11,0,*50
1530489715.83,10335,13.81,73546.0,-3.91,-5.11,-4.93,0,*54
1530489717.08,10336,13.81,73538.0,-3.91,-5.07,-4.85,0,*57
1530489718.32,10337,13.81,73530.5,-3.91,-4.93,-4.73,0,*53
1530489719.56,10338,13.81,73522.5,-3.91,-4.73,-4.73,0,*52
1530489720.8,10339,13.75,73516.3,-3.91,-4.73,-4.73,0,*53
1530489722.05,10340,13.81,73530.8,-3.91,-4.73,-4.69,0,*56
1530489723.29,10341,13.75,73522.0,-3.91,-4.69,-4.69,0,*5C
1530489724.51,10342,13.75,73516.8,-3.91,-4.65,-4.69,0,*53
1530489725.75,10343,13.75,73522.5,-3.91,-4.69,-4.73,0,*55
1530489726.98,10344,13.81,73528.3,-3.91,-4.65,-4.81,0,*53
1530489728.22,10345,13.81,73528.0,-3.91,-4.69,-4.93,0,*5D
1530489729.46,10346,13.75,73532.0,-3.91,-4.69,-5.07,0,*52
1530489730.71,10347,13.75,73534.3,-3.91,-4.81,-5.31,0,*50
1530489731.95,10348,13.81,73530.8,-3.91,-4.93,-5.23,0,*5F
1530489733.18,10349,13.75,73528.3,-3.91,-4.99,-5.07,0,*52
1530489734.42,10350,13.81,73530.8,-3.89,-4.93,-4.99,0,*5F
1530489735.66,10351,13.81,73534.3,-3.89,-4.85,-4.99,0,*59
1530489736.9,10352,13.81,73530.5,-3.89,-4.85,-4.99,0,*5A
1530489738.18,10353,13.81,73534.8,-3.89,-4.85,-4.85,0,*56
1530489739.41,10354,13.81,73536.0,-3.87,-4.69,-4.77,0,*50
1530489740.69,10355,13.75,73532.8,-3.89,-4.81,-4.81,0,*50
1530489741.93,10356,13.81,73534.3,-3.91,-4.69,-4.89,0,*54
1530489743.2,10357,13.75,73534.5,-3.89,-4.81,-4.73,0,*5F
1530489744.47,10358,13.81,73540.3,-3.89,-4.73,-4.73,0,*5D
1530489745.74,10359,13.81,73536.5,-3.89,-4.69,-4.73,0,*57
1530489747.01,10360,13.81,73532.8,-3.89,-4.69,-4.73,0,*5D
1530489748.28,10361,13.81,73522.8,-3.89,-4.69,-4.81,0,*51
1530489749.55,10362,13.75,73510.0,-3.89,-4.69,-4.73,0,*5F
1530489750.82,10363,13.81,73526.5,-3.89,-4.73,-4.73,0,*55
1530489752.1,10364,13.81,73538.0,-3.89,-4.73,-4.73,0,*52
1530489753.32,10365,13.81,73542.5,-3.87,-4.61,-4.69,0,*55
1530489754.57,10366,13.75,73536.0,-3.87,-4.69,-5.23,0,*51
1530489755.81,10367,13.75,73530.8,-3.89,-4.81,-5.43,0,*5E
1530489757.06,10368,13.75,73532.8,-3.89,-5.11,-5.97,0,*50
1530489758.29,10369,13.75,73534.5,-3.89,-5.47,-6.81,0,*56
1530489759.52,10370,13.75,73534.3,-3.87,-6.35,-8.07,0,*56
1530489760.77,10371,13.75,73532.3,-3.89,-7.43,-8.29,0,*55
1530489762.03,10372,13.81,73536.8,-3.89,-7.73,-8.41,0,*5B
1530489763.28,10373,13.81,73534.5,-3.89,-7.99,-8.29,0,*50
1530489764.53,10374,13.81,73522.5,-3.89,-7.35,-6.89,0,*55
1530489765.75,10375,13.75,73516.0,-3.93,-6.43,-6.73,0,*5A
1530489766.95,10376,13.81,73520.5,-3.91,-6.35,-6.51,0,*5A
1530489768.2,10377,13.75,73528.3,-3.91,-6.27,-6.93,0,*56
1530489769.45,10378,13.75,73520.3,-3.93,-6.55,-7.35,0,*53
1530489770.68,10379,13.75,73500.5,-3.93,-6.59,-7.11,0,*58
1530489771.92,10380,13.75,73500.8,-3.93,-6.55,-7.05,0,*57
1530489773.15,10381,13.75,73478.3,-3.93,-6.73,-7.23,0,*56
1530489774.39,10382,13.75,73502.8,-3.91,-7.01,-7.05,0,*57
1530489775.62,10383,13.81,73524.3,-3.93,-6.81,-7.11,0,*58
1530489776.83,10384,13.81,73540.3,-3.93,-6.69,-7.53,0,*5F
1530489778.09,10385,13.75,73528.3,-3.93,-7.19,-7.77,0,*5E
1530489779.3,10386,13.75,73512.3,-3.93,-7.49,-8.59,0,*5B
1530489780.52,10387,13.75,73504.0,-3.93,-7.87,-8.17,0,*52
1530489781.75,10388,13.81,73494.5,-3.95,-7.73,-8.17,0,*50
1530489783.01,10389,13.81,73498.8,-3.95,-7.73,-7.91,0,*50
1530489784.2,10390,13.75,73516.8,-3.95,-7.53,-7.53,0,*54
1530489785.4,10391,13.75,73522.5,-3.95,-7.23,-7.49,0,*59
1530489786.66,10392,13.81,73508.5,-3.97,-6.97,-7.11,0,*5B
1530489787.9,10393,13.75,73502.5,-3.97,-6.85,-7.11,0,*59
1530489789.13,10394,13.75,73508.3,-3.97,-6.73,-6.89,0,*57
1530489790.38,10395,13.75,73506.8,-3.97,-6.47,-6.63,0,*55
1530489791.61,10396,13.75,73530.0,-3.95,-6.19,-6.39,0,*50
1530489792.87,10397,13.75,73522.5,-3.97,-5.93,-6.43,0,*5F
1530489794.13,10398,13.81,73520.8,-3.97,-5.85,-6.35,0,*56
1530489795.36,10399,13.81,73518.0,-3.97,-5.97,-6.47,0,*51
1530489796.62,10400,13.75,73522.0,-3.97,-6.09,-6.63,0,*54
1530489797.88,10401,13.81,73528.3,-3.97,-6.23,-6.35,0,*5E
1530489799.13,10402,13.75,73534.3,-3.97,-6.05,-6.19,0,*57
1530489800.39,10403,13.81,73542.5,-3.97,-5.97,-6.19,0,*5E
1530489801.62,10404,13.75,73542.0,-3.97,-5.97,-6.89,0,*50
1530489802.88,10405,13.81,73532.8,-3.97,-6.51,-7.65,0,*5B
1530489804.08,10406,13.81,73530.3,-3.95,-6.85,-7.53,0,*56
1530489805.34,10407,13.75,73516.0,-3.97,-7.11,-7.57,0,*5D
1530489806.6,10408,13.75,73504.0,-3.97,-7.01,-7.11,0,*51
1530489807.83,10409,13.81,73512.3,-3.97,-6.31,-6.43,0,*54
1530489809.12,10410,13.75,73552.3,-3.97,-5.93,-6.19,0,*58
1530489810.38,10411,13.81,73544.5,-3.97,-5.81,-6.35,0,*54
1530489811.61,10412,13.81,73538.0,-3.97,-6.05,-6.51,0,*5A
1530489812.85,10413,13.75,73530.8,-3.97,-6.09,-6.51,0,*57
1530489814.08,10414,13.75,73534.3,-3.97,-6.09,-6.77,0,*54
1530489815.31,10415,13.75,73546.8,-3.97,-6.31,-7.15,0,*5B
1530489816.54,10416,13.81,73548.3,-3.97,-6.77,-7.53,0,*58
1530489817.79,10417,13.81,73544.0,-3.97,-7.39,-7.15,0,*50
1530489819.05,10418,13.81,73538.8,-3.97,-7.27,-7.15,0,*50
1530489820.29,10419,13.81,73538.5,-3.97,-7.11,-7.23,0,*51
1530489821.55,10420,13.81,73530.5,-3.97,-6.97,-7.15,0,*51
1530489822.8,10421,13.75,73518.0,-3.97,-7.01,-6.85,0,*56
1530489824.03,10422,13.75,73520.0,-3.97,-6.47,-6.77,0,*5B
1530489825.26,10423,13.75,73524.8,-3.99,-6.47,-7.01,0,*54
1530489826.49,10424,13.81,73544.8,-3.99,-6.51,-7.01,0,*54
1530489827.72,10425,13.75,73534.0,-3.99,-7.15,-7.57,0,*57
1530489828.95,10426,13.75,73534.5,-3.99,-7.53,-7.27,0,*51
1530489830.21,10427,13.75,73532.8,-3.99,-7.57,-6.63,0,*55
1530489831.41,10428,13.75,73534.3,-3.99,-6.89,-6.43,0,*5A
1530489832.64,10429,13.75,73532.3,-3.99,-6.63,-6.47,0,*5B
1530489833.86,10430,13.75,73524.3,-4.01,-6.47,-6.39,0,*5A
1530489835.12,10431,13.81,73522.3,-3.99,-6.19,-6.19,0,*54
1530489836.32,10432,13.81,73530.0,-3.99,-5.97,-6.09,0,*53
1530489837.55,10433,13.75,73524.5,-3.99,-5.81,-6.09,0,*55
1530489838.78,10434,13.75,73520.0,-3.99,-5.81,-6.51,0,*5F
1530489839.99,10435,13.75,73526.8,-3.99,-6.09,-6.77,0,*59
1530489841.19,10436,13.75,73530.3,-3.99,-6.35,-6.09,0,*5C
1530489842.39,10437,13.81,73534.0,-3.99,-5.97,-6.01,0,*5E
1530489843.62,10438,13.75,73530.3,-3.99,-5.73,-5.97,0,*57
1530489844.83,10439,13.75,73524.5,-3.99,-5.55,-6.51,0,*5B
1530489846.06,10440,13.75,73532.8,-3.99,-5.85,-6.43,0,*5B
1530489847.26,10441,13.75,73538.5,-3.99,-5.97,-7.53,0,*59
1530489848.49,10442,13.75,73540.0,-3.99,-7.35,-8.33,0,*59
1530489849.72,10443,13.81,73542.5,-3.99,-7.77,-8.37,0,*5A
1530489850.97,10444,13.75,73540.3,-3.99,-7.95,-8.51,0,*51
1530489852.19,10445,13.75,73536.5,-3.99,-8.03,-8.25,0,*53
1530489853.43,10446,13.75,73542.3,-4.01,-7.99,-8.55,0,*5D
1530489854.68,10447,13.75,73540.3,-4.01,-8.11,-8.75,0,*51
1530489855.96,10448,13.81,73534.3,-4.01,-8.11,-8.11,0,*5C
1530489857.22,10449,13.75,73532.5,-3.99,-7.35,-7.39,0,*57
1530489858.42,10450,13.75,73534.0,-3.99,-6.89,-7.15,0,*57
1530489859.65,10451,13.75,73528.0,-3.99,-6.59,-6.97,0,*50
1530489860.86,10452,13.75,73522.3,-3.99,-6.51,-6.85,0,*58
1530489862.05,10453,13.75,73522.5,-4.03,-6.47,-6.69,0,*58
1530489863.31,10454,13.75,73518.0,-4.01,-6.23,-6.47,0,*53
1530489864.54,10455,13.75,73520.8,-4.01,-6.13,-6.35,0,*54
1530489865.78,10456,13.75,73530.0,-4.01,-6.23,-6.39,0,*58
1530489867.04,10457,13.75,73530.8,-4.01,-6.23,-6.47,0,*50
1530489868.27,10458,13.75,73518.0,-4.01,-6.51,-6.89,0,*58
1530489869.5,10459,13.75,73522.3,-4.01,-6.89,-7.15,0,*58
1530489870.73,10460,13.81,73504.3,-4.01,-7.19,-7.15,0,*5A
1530489871.94,10461,13.75,73498.0,-3.99,-7.15,-7.23,0,*54
1530489873.22,10462,13.75,73504.3,-4.01,-7.01,-7.57,0,*57
1530489874.49,10463,13.75,73520.5,-4.01,-7.01,-7.69,0,*5B
1530489875.75,10464,13.75,73532.8,-4.03,-7.01,-7.61,0,*56
1530489876.95,10465,13.75,73526.0,-4.03,-7.15,-7.49,0,*58
1530489878.2,10466,13.75,73520.0,-4.03,-7.57,-7.57,0,*52
1530489879.45,10467,13.75,73518.5,-4.03,-7.27,-7.27,0,*53
1530489880.66,10468,13.75,73518.8,-4.03,-7.19,-7.83,0,*5F
1530489881.89,10469,13.75,73520.3,-4.05,-7.23,-7.99,0,*5A
1530489883.12,10470,13.75,73528.8,-4.03,-7.01,-7.19,0,*5C
1530489884.31,10471,13.75,73542.5,-4.03,-6.69,-6.69,0,*54
1530489885.52,10472,13.75,73540.5,-4.03,-6.51,-6.81,0,*5A
1530489886.75,10473,13.75,73524.0,-4.05,-6.69,-7.31,0,*5C
1530489887.95,10474,13.75,73518.5,-4.05,-6.73,-7.19,0,*5A
1530489889.16,10475,13.75,73516.3,-4.05,-6.69,-6.81,0,*50
1530489890.36,10476,13.75,73502.5,-4.03,-6.13,-6.35,0,*57
1530489891.57,10477,13.75,73508.3,-4.05,-6.13,-6.31,0,*54
1530489892.78,10478,13.75,73512.3,-4.05,-6.01,-6.39,0,*50
1530489893.98,10479,13.75,73522.0,-4.03,-5.97,-6.81,0,*58
1530489895.18,10480,13.75,73548.5,-4.05,-6.43,-7.53,0,*5C
1530489896.41,10481,13.75,73546.5,-4.03,-7.15,-8.11,0,*50
1530489897.61,10482,13.81,73542.3,-4.03,-7.87,-8.29,0,*53
1530489898.83,10483,13.75,73532.8,-4.05,-8.11,-8.33,0,*5F
1530489900.09,10484,13.75,73532.0,-4.03,-8.07,-7.99,0,*56
1530489901.31,10485,13.75,73532.0,-4.03,-7.95,-7.15,0,*57
1530489902.51,10486,13.75,73526.8,-4.03,-7.49,-6.81,0,*59
1530489903.72,10487,13.75,73518.3,-4.05,-7.23,-6.51,0,*5F
1530489904.96,10488,13.75,73514.5,-4.05,-6.97,-6.43,0,*5D
1530489906.16,10489,13.75,73512.8,-4.03,-6.51,-6.35,0,*51
1530489907.37,10490,13.75,73500.8,-4.05,-6.51,-6.13,0,*5B
1530489908.59,10491,13.75,73496.3,-4.03,-6.23,-5.97,0,*56
1530489909.82,10492,13.75,73500.5,-4.03,-6.13,-5.77,0,*58
1530489911.07,10493,13.75,73506.5,-4.03,-5.85,-5.69,0,*5A
1530489912.3,10494,13.75,73502.3,-4.03,-5.69,-5.47,0,*53
1530489913.54,10495,13.75,73512.0,-4.05,-5.65,-5.51,0,*5F
1530489914.76,10496,13.75,73500.8,-4.03,-5.61,-5.35,0,*5C
1530489915.99,10497,13.75,73512.8,-4.05,-5.65,-5.51,0,*5D
1530489917.25,10498,13.75,73528.8,-4.05,-5.61,-5.89,0,*53
1530489918.48,10499,13.81,73528.0,-4.05,-5.77,-6.73,0,*53
1530489919.71,10500,13.75,73524.0,-4.05,-6.05,-7.65,0,*52
1530489920.94,10501,13.75,73524.8,-4.05,-6.55,-8.11,0,*5A
1530489922.14,10502,13.75,73530.8,-4.03,-7.11,-8.33,0,*5E
1530489923.33,10503,13.75,73528.5,-4.03,-7.83,-8.75,0,*56
1530489924.57,10504,13.75,73530.8,-4.05,-8.11,-8.85,0,*5C
1530489925.76,10505,13.75,73532.0,-4.05,-8.29,-8.67,0,*5A
1530489926.99,10506,13.75,73536.5,-4.03,-8.07,-8.41,0,*57
1530489928.22,10507,13.75,73540.5,-4.09,-8.07,-8.85,0,*54
1530489929.42,10508,13.75,73538.8,-4.09,-8.37,-8.97,0,*5B
1530489930.64,10509,13.75,73536.3,-4.09,-8.37,-8.51,0,*50
1530489931.9,10510,13.75,73530.0,-4.09,-7.95,-8.07,0,*5C
1530489933.15,10511,13.75,73544.3,-4.11,-7.65,-8.17,0,*5A
1530489934.34,10512,13.75,73552.0,-4.09,-7.49,-8.21,0,*5B
1530489935.58,10513,13.75,73536.5,-4.11,-8.03,-8.71,0,*57
1530489936.78,10514,13.75,73528.8,-4.09,-8.21,-8.75,0,*5D
1530489937.97,10515,13.75,73530.0,-4.09,-8.33,-8.75,0,*5F
1530489939.19,10516,13.75,73526.5,-4.09,-8.45,-8.51,0,*5B
1530489940.44,10517,13.75,73530.3,-4.11,-8.07,-8.17,0,*57
1530489941.69,10518,13.75,73530.8,-4.11,-7.95,-8.45,0,*5B
1530489942.91,10519,13.75,73526.3,-4.11,-7.83,-8.33,0,*5C
1530489944.15,10520,13.75,73526.0,-4.11,-7.49,-7.39,0,*55
1530489945.42,10521,13.75,73526.3,-4.11,-6.63,-6.97,0,*58
1530489946.67,10522,13.75,73530.0,-4.11,-6.73,-7.27,0,*50
1530489947.95,10523,13.75,73528.0,-4.11,-6.97,-7.39,0,*54
1530489949.18,10524,13.75,73520.3,-4.11,-7.11,-6.85,0,*5A
1530489950.41,10525,13.75,73512.3,-4.11,-6.59,-6.31,0,*59
1530489951.67,10526,13.75,73504.0,-4.11,-6.31,-6.19,0,*5E
1530489952.91,10527,13.75,73514.3,-4.11,-6.05,-5.93,0,*59
1530489954.14,10528,13.75,73512.5,-4.11,-5.97,-6.09,0,*5E
1530489955.39,10529,13.75,73510.5,-4.11,-5.81,-5.97,0,*5C
1530489956.64,10530,13.75,73504.8,-4.11,-5.81,-6.31,0,*5B
1530489957.91,10531,13.75,73528.8,-4.11,-5.69,-6.23,0,*5F
1530489959.16,10532,13.75,73528.5,-4.11,-5.77,-6.55,0,*52
1530489960.39,10533,13.75,73516.0,-4.11,-6.31,-7.15,0,*57
1530489961.64,10534,13.75,73524.5,-4.11,-6.55,-7.69,0,*59
1530489962.87,10535,13.75,73532.5,-4.11,-7.15,-8.21,0,*5E
1530489964.11,10536,13.75,73534.5,-4.11,-7.91,-8.63,0,*57
1530489965.39,10537,13.75,73536.0,-4.11,-7.65,-7.91,0,*5F
1530489966.64,10538,13.75,73538.8,-4.11,-7.77,-8.45,0,*55
1530489967.88,10539,13.75,73524.3,-4.11,-8.03,-8.17,0,*5F
1530489969.13,10540,13.75,73512.5,-4.11,-7.77,-7.23,0,*55
1530489970.38,10541,13.75,73508.0,-4.11,-7.01,-6.77,0,*55
1530489971.59,10542,13.75,73508.0,-4.13,-6.89,-6.73,0,*51
1530489972.79,10543,13.75,73508.0,-4.13,-6.55,-6.73,0,*51
1530489974.0,10544,13.75,73516.0,-4.13,-6.31,-6.55,0,*50
1530489975.24,10545,13.75,73512.8,-4.13,-5.93,-6.35,0,*5C
1530489976.47,10546,13.75,73514.0,-4.13,-5.85,-6.55,0,*5E
1530489977.68,10547,13.75,73512.8,-4.13,-6.05,-6.73,0,*50
1530489978.89,10548,13.75,73526.0,-4.13,-6.35,-7.15,0,*5D
1530489980.12,10549,13.75,73526.0,-4.13,-6.77,-7.39,0,*54
1530489981.35,10550,13.75,73522.0,-4.13,-7.23,-8.03,0,*5A
1530489982.63,10551,13.75,73530.3,-4.11,-7.65,-8.07,0,*5F
1530489983.88,10552,13.75,73532.3,-4.13,-7.91,-7.95,0,*51
1530489985.11,10553,13.75,73532.5,-4.13,-8.17,-7.39,0,*57
1530489986.34,10554,13.75,73528.3,-4.13,-8.03,-6.89,0,*5F
1530489987.57,10555,13.75,73528.8,-4.13,-7.69,-6.73,0,*58
1530489988.82,10556,13.75,73528.5,-4.13,-7.35,-6.97,0,*58
1530489990.08,10557,13.75,73536.8,-4.13,-7.35,-7.65,0,*55
1530489991.3,10558,13.75,73526.5,-4.13,-7.69,-8.33,0,*5F
1530489992.52,10559,13.75,73524.3,-4.13,-7.95,-8.63,0,*58
1530489993.75,10560,13.75,73524.5,-4.13,-7.77,-8.45,0,*5A
1530489994.98,10561,13.75,73516.5,-4.13,-8.03,-8.17,0,*50
1530489996.23,10562,13.75,73510.5,-4.13,-7.95,-7.57,0,*58
1530489997.51,10563,13.75,73526.3,-4.15,-7.43,-6.93,0,*5D
1530489998.75,10564,13.75,73534.8,-4.13,-7.27,-7.11,0,*55
1530490000.0,10565,13.75,73514.3,-4.13,-7.27,-7.01,0,*55
1530490001.23,10566,13.75,73508.8,-4.13,-6.97,-6.89,0,*5D
1530490002.47,10567,13.75,73514.0,-4.13,-6.77,-6.97,0,*5D
1530490003.71,10568,13.75,73522.8,-4.15,-6.77,-7.05,0,*5E
1530490005.0,10569,13.75,73526.3,-4.15,-6.93,-7.27,0,*55
1530490006.25,10570,13.75,73514.8,-4.15,-7.53,-7.31,0,*57
1530490007.5,10571,13.75,73508.8,-4.15,-7.83,-6.93,0,*52
1530490008.75,10572,13.75,73514.8,-4.15,-7.39,-7.15,0,*5F
1530490010.04,10573,13.75,73506.5,-4.15,-6.93,-7.43,0,*5C
1530490011.27,10574,13.75,73506.0,-4.13,-7.23,-7.57,0,*52
1530490012.49,10575,13.75,73502.0,-4.13,-7.11,-7.11,0,*50
1530490013.75,10576,13.75,73524.5,-4.15,-6.81,-6.63,0,*59
1530490014.98,10577,13.75,73506.8,-4.15,-6.51,-6.47,0,*53
1530490016.21,10578,13.75,73504.3,-4.13,-6.23,-6.47,0,*5F
1530490017.46,10579,13.75,73494.0,-4.15,-6.27,-6.89,0,*5E
1530490018.7,10580,13.75,73494.3,-4.15,-6.39,-6.81,0,*5F
1530490019.93,10581,13.75,73506.8,-4.13,-6.47,-6.63,0,*5D
1530490021.16,10582,13.75,73510.5,-4.15,-6.35,-6.59,0,*54
1530490022.37,10583,13.75,73510.5,-4.13,-6.31,-6.43,0,*5C
1530490023.64,10584,13.75,73500.0,-4.15,-6.27,-7.01,0,*5D
1530490024.9,10585,13.75,73500.3,-4.13,-6.63,-7.57,0,*59
1530490026.17,10586,13.75,73508.8,-4.15,-7.27,-7.35,0,*59
1530490027.43,10587,13.75,73524.5,-4.15,-7.43,-7.19,0,*54
1530490028.64,10588,13.75,73520.0,-4.13,-7.23,-7.15,0,*57
1530490029.92,10589,13.75,73516.8,-4.15,-7.27,-7.43,0,*57
1530490031.2,10590,13.75,73516.8,-4.15,-7.69,-8.51,0,*59
1530490032.48,10591,13.75,73518.5,-4.15,-7.95,-8.07,0,*58
1530490033.74,10592,13.75,73522.0,-4.15,-7.53,-7.61,0,*5E
1530490035.01,10593,13.75,73522.0,-4.15,-7.95,-7.69,0,*5D
1530490036.3,10594,13.75,73520.3,-4.15,-7.73,-7.39,0,*57
1530490037.53,10595,13.75,73514.8,-4.13,-7.27,-7.83,0,*50
1530490038.78,10596,13.75,73516.8,-4.13,-7.27,-7.35,0,*5E
1530490040.01,10597,13.75,73510.3,-4.15,-6.77,-6.77,0,*5A
1530490041.24,10598,13.75,73516.5,-4.15,-6.47,-6.77,0,*56
1530490042.47,10599,13.75,73524.8,-4.13,-6.35,-7.01,0,*54
1530490043.73,10600,13.75,73530.3,-4.15,-6.81,-7.99,0,*5F
1530490044.96,10601,13.75,73528.3,-4.17,-7.57,-8.33,0,*59
1530490046.16,10602,13.75,73524.5,-4.13,-8.17,-8.59,0,*59
1530490047.41,10603,13.75,73522.0,-4.15,-8.07,-8.33,0,*53
1530490048.67,10604,13.75,73520.0,-4.17,-7.95,-7.73,0,*59
1530490049.92,10605,13.75,73520.3,-4.15,-7.39,-6.89,0,*58
1530490051.15,10606,13.75,73522.3,-4.15,-6.59,-6.81,0,*54
1530490052.41,10607,13.75,73516.8,-4.17,-6.93,-7.01,0,*58
1530490053.61,10608,13.75,73512.0,-4.17,-7.15,-6.69,0,*57
1530490054.82,10609,13.75,73514.8,-4.17,-6.81,-6.59,0,*59
1530490056.06,10610,13.75,73514.0,-4.17,-6.51,-6.63,0,*55
1530490057.26,10611,13.75,73516.3,-4.17,-6.47,-6.59,0,*5A
1530490058.47,10612,13.75,73518.3,-4.17,-6.51,-6.69,0,*5D
1530490059.67,10613,13.75,73518.8,-4.17,-6.39,-6.69,0,*52
1530490060.9,10614,13.75,73520.8,-4.17,-6.23,-6.39,0,*5B
1530490062.12,10615,13.75,73524.0,-4.17,-6.09,-6.23,0,*59
1530490063.34,10616,13.75,73520.3,-4.17,-6.09,-6.47,0,*58
1530490064.59,10617,13.75,73524.5,-4.15,-6.27,-7.15,0,*51
1530490065.82,10618,13.75,73524.0,-4.17,-7.15,-7.95,0,*54
1530490067.08,10619,13.75,73528.0,-4.15,-7.73,-7.87,0,*54
1530490068.36,10620,13.75,73526.5,-4.15,-7.95,-7.31,0,*5B
1530490069.59,10621,13.75,73518.3,-4.15,-6.81,-6.59,0,*51
1530490070.82,10622,13.75,73518.0,-4.15,-6.39,-6.35,0,*5B
1530490072.07,10623,13.75,73510.8,-4.15,-6.27,-5.97,0,*5E
1530490073.35,10624,13.75,73522.3,-4.15,-5.89,-5.81,0,*59
1530490074.6,10625,13.75,73532.3,-4.15,-5.81,-6.01,0,*5B
1530490075.86,10626,13.75,73528.3,-4.15,-5.89,-6.59,0,*5D
1530490077.08,10627,13.75,73518.5,-4.13,-6.63,-6.85,0,*5C
1530490078.32,10628,13.75,73518.5,-4.15,-6.81,-6.51,0,*50
1530490079.52,10629,13.75,73512.5,-4.13,-6.31,-6.05,0,*5D
1530490080.77,10630,13.75,73512.3,-4.15,-6.01,-5.73,0,*52
1530490082.05,10631,13.75,73512.5,-4.15,-5.73,-5.61,0,*56
1530490083.28,10632,13.75,73514.3,-4.15,-5.47,-5.35,0,*53
1530490084.54,10633,13.75,73512.0,-4.15,-5.35,-5.69,0,*5E
1530490085.79,10634,13.75,73520.8,-4.15,-5.47,-5.73,0,*57
1530490087.0,10635,13.75,73524.5,-4.13,-5.43,-5.55,0,*50
1530490088.25,10636,13.75,73520.3,-4.15,-5.35,-5.69,0,*5B
1530490089.45,10637,13.75,73524.0,-4.13,-5.39,-5.97,0,*51
1530490090.69,10638,13.75,73520.5,-4.13,-5.69,-6.59,0,*5A
1530490091.92,10639,13.75,73528.3,-4.13,-6.19,-6.55,0,*53
1530490093.17,10640,13.75,73524.5,-4.13,-6.23,-7.01,0,*54
1530490094.4,10641,13.75,73524.5,-4.15,-7.19,-8.25,0,*52
1530490095.66,10642,13.75,73522.5,-4.15,-7.73,-8.55,0,*5A
1530490096.88,10643,13.75,73528.8,-4.13,-7.95,-8.63,0,*50
1530490098.1,10644,13.75,73520.0,-4.15,-8.17,-8.75,0,*53
1530490099.36,10645,13.75,73528.5,-4.15,-8.07,-8.41,0,*54
1530490100.64,10646,13.75,73530.8,-4.15,-7.61,-8.11,0,*5D
1530490101.93,10647,13.75,73526.5,-4.15,-7.57,-8.07,0,*5E
1530490103.21,10648,13.75,73514.8,-4.15,-7.43,-7.57,0,*5E
1530490104.47,10649,13.75,73514.8,-4.15,-6.81,-7.27,0,*57
1530490105.72,10650,13.75,73516.8,-4.15,-6.47,-7.05,0,*55
1530490106.97,10651,13.75,73526.0,-4.15,-6.35,-7.01,0,*55
1530490108.23,10652,13.75,73522.3,-4.15,-6.47,-7.39,0,*58
1530490109.48,10653,13.75,73530.5,-4.15,-6.81,-7.05,0,*5C
1530490110.71,10654,13.75,73538.5,-4.15,-6.59,-6.81,0,*53
1530490111.97,10655,13.75,73536.5,-4.15,-6.59,-6.93,0,*51
1530490113.24,10656,13.75,73536.3,-4.15,-6.63,-7.39,0,*5A